KQ4HEI Weather Reports


Display with metric or nautical units.
time (UTC)temp
F
wind
direction
speed
MPH
gust
MPH
rain 1hr
in
rain 24hr
in
rain mn
in
humidity
%
barometer
mb
20260505123428 61 127 1.0 2.0 0.00 0.00 0.00 88 1014.7
20260505121428 54 0 0.0 0.0 0.00 0.00 0.00 99 1014.6
20260505115429 48 0 0.0 0.0 0.00 0.00 0.00 99 1014.6
20260505113428 46 0 0.0 0.0 0.00 0.00 0.00 99 1014.1
20260505111428 45 0 0.0 0.0 0.00 0.00 0.00 99 1014.0
20260505101429 46 0 0.0 0.0 0.00 0.00 0.00 99 1014.1
20260505095429 45 0 0.0 0.0 0.00 0.00 0.00 99 1014.1
20260505093430 45 0 0.0 0.0 0.00 0.00 0.00 99 1013.2
20260505091430 45 0 0.0 0.0 0.00 0.00 0.00 99 1013.1
20260505085429 45 0 0.0 0.0 0.00 0.00 0.00 99 1013.1
20260505083430 45 0 0.0 0.0 0.00 0.00 0.00 99 1013.1
20260505081430 45 0 0.0 0.0 0.00 0.00 0.00 99 1012.9
20260505075430 45 0 0.0 0.0 0.00 0.00 0.00 99 1013.1
20260505073429 46 0 0.0 0.0 0.00 0.00 0.00 99 1013.1
20260505071429 46 0 0.0 0.0 0.00 0.00 0.00 99 1013.2
20260505065429 47 0 0.0 0.0 0.00 0.00 0.00 99 1013.4
20260505063430 47 0 0.0 0.0 0.00 0.00 0.00 99 1013.7
20260505061429 48 0 0.0 0.0 0.00 0.00 0.00 99 1013.6
20260505055429 48 0 0.0 0.0 0.00 0.00 0.00 99 1013.9
20260505053429 48 0 0.0 0.0 0.00 0.00 0.00 96 1013.6
20260505051429 50 0 0.0 0.0 0.00 0.00 0.00 97 1013.6
20260505041429 51 0 0.0 0.0 0.00 0.00 0.00 95 1014.1
20260505035430 52 0 0.0 0.0 0.00 0.00 0.00 94 1014.4
20260505033430 53 0 0.0 0.0 0.00 0.00 0.00 91 1014.6
20260505031429 54 0 0.0 0.0 0.00 0.00 0.00 91 1014.5
20260505025429 55 0 0.0 0.0 0.00 0.00 0.00 89 1014.6
20260505023429 56 0 0.0 0.0 0.00 0.00 0.00 86 1014.6
20260505021429 57 0 0.0 0.0 0.00 0.00 0.00 82 1014.6
20260505015429 58 0 0.0 0.0 0.00 0.00 0.00 78 1014.4
20260505013429 59 0 0.0 0.0 0.00 0.00 0.00 73 1014.6
20260505011429 61 0 0.0 0.0 0.00 0.00 0.00 66 1014.4
20260505005429 64 0 0.0 0.0 0.00 0.00 0.00 61 1014.4
20260505003429 67 0 0.0 0.0 0.00 0.00 0.00 56 1014.0
20260505001429 70 0 0.0 0.0 0.00 0.00 0.00 50 1014.1
20260504233429 75 239 4.0 5.0 0.00 0.00 0.00 42 1013.7
20260504210131 85 233 6.0 7.0 0.00 0.00 0.00 29 1013.2
20260504205132 85 132 3.0 5.0 0.00 0.00 0.00 29 1013.2
20260504204131 86 210 5.0 7.0 0.00 0.00 0.00 30 1013.3
20260504203132 85 162 4.0 6.0 0.00 0.00 0.00 28 1013.5
20260504202131 86 216 2.0 4.0 0.00 0.00 0.00 26 1013.8
20260504201131 85 137 4.0 6.0 0.00 0.00 0.00 26 1013.8
20260504200132 86 149 3.0 5.0 0.00 0.00 0.00 25 1013.8
20260504195131 86 257 2.0 3.0 0.00 0.00 0.00 26 1014.1
20260504194132 85 242 3.0 5.0 0.00 0.00 0.00 26 1014.2
20260504193131 85 188 3.0 6.0 0.00 0.00 0.00 27 1014.3
20260504192131 85 124 4.0 7.0 0.00 0.00 0.00 27 1014.6
20260504191131 85 142 3.0 4.0 0.00 0.00 0.00 28 1014.8
20260504190131 85 126 4.0 6.0 0.00 0.00 0.00 29 1014.9
20260504185131 85 142 3.0 5.0 0.00 0.00 0.00 27 1014.8
20260504184131 85 239 1.0 3.0 0.00 0.00 0.00 27 1014.9
20260504183131 85 240 3.0 5.0 0.00 0.00 0.00 26 1015.0
20260504182131 84 121 2.0 4.0 0.00 0.00 0.00 30 1015.2
20260504181131 83 137 3.0 5.0 0.00 0.00 0.00 28 1015.4
20260504180131 82 128 3.0 6.0 0.00 0.00 0.00 29 1015.5
20260504175132 82 139 4.0 6.0 0.00 0.00 0.00 30 1015.4
20260504174131 83 232 5.0 8.0 0.00 0.00 0.00 30 1015.5
20260504173131 83 133 3.0 6.0 0.00 0.00 0.00 31 1015.7
20260504172133 82 150 4.0 5.0 0.00 0.00 0.00 31 1015.8
20260504171131 83 165 3.0 4.0 0.00 0.00 0.00 30 1016.0
20260504170132 82 334 2.0 3.0 0.00 0.00 0.00 31 1016.0
20260504160132 79 128 3.0 5.0 0.00 0.00 0.00 31 1016.9